User: anonymous   Login
Location: Unspecified
(40.7945°N, 111.1337°W)
Time: 08:42:55
(UTC-06:00)
Language:

Resurs 1-4 Rocket - Orbit

View from above orbital plane
View from above orbital plane
View from above satellite
View from above satellite

Ground track
Ground track

The orbit data is extracted from the following two-line orbital elements,

1 25400U 98043G   19114.39617143 -.00000011  00000-0  13352-4 0  9996
2 25400  98.5685  54.0618 0010931 117.1385 243.0911 14.25439699 81403
Epoch (UTC): 24 April 2019 09:30:29
Eccentricity: 0.0010931
inclination: 98.5685°
perigee height: 799 km
apogee height: 815 km
right ascension of ascending node: 54.0618°
argument of perigee: 117.1385°
revolutions per day: 14.25439699
mean anomaly at epoch: 243.0911°
orbit number at epoch: 8140

The dashed part of the orbit path shows where the satellite is in the earth's shadow,  

DLR